"2008/01/01", 6.8, 7.4, 6.3
"2008/01/02", 6.4, 6.8, 5.7
"2008/01/03", 6.1, 6.8, 5.4
"2008/01/04", 6.4, 6.7, 6.0
"2008/01/05", 6.3, 6.4, 6.1
"2008/01/06", 6.4, 7.0, 6.0
"2008/01/07", 6.3, 6.3, 6.0
"2008/01/08", 6.3, 6.9, 6.0
"2008/01/09", 6.7, 7.3, 6.2
"2008/01/10", 7.0, 7.8, 6.5
"2008/01/11", 7.2, 7.9, 6.5
"2008/01/12", 7.0, 7.6, 6.6
"2008/01/13", 6.3, 6.8, 6.0
"2008/01/14", 5.9, 6.3, 5.3
"2008/01/15", 6.2, 7.3, 5.5
"2008/01/16", 5.9, 6.2, 5.4
"2008/01/17", 5.8, 6.1, 5.5
"2008/01/18", 5.4, 5.7, 4.3
"2008/01/19", 4.9, 5.5, 4.1
"2008/01/20", 4.8, 5.1, 4.2
"2008/01/21", 4.9, 5.1, 4.4
"2008/01/22", 4.6, 4.9, 4.2
"2008/01/23", 4.7, 4.8, 4.6
"2008/01/24", 4.8, 5.5, 4.4
"2008/01/25", 4.5, 5.0, 4.2
"2008/01/26", 4.3, 4.9, 3.4
"2008/01/27", 4.2, 4.6, 3.9
"2008/01/28", 4.2, 4.6, 3.6
"2008/01/29", 4.2, 4.4, 4.0
"2008/01/30", 4.7, 5.7, 4.0
"2008/01/31", 4.8, 5.7, 4.3
"2008/02/01", 4.8, 5.5, 4.4
"2008/02/02", 4.7, 5.0, 4.4
"2008/02/03", 4.5, 4.9, 4.0
"2008/02/04", 4.2, 4.9, 3.3
"2008/02/05", 4.8, 5.4, 4.2
"2008/02/06", 4.5, 4.9, 4.3
"2008/02/07", 4.6, 5.5, 4.2
"2008/02/08", 4.5, 5.0, 4.0
"2008/02/09", 4.3, 4.6, 4.2
"2008/02/10", 4.4, 4.7, 4.0
"2008/02/11", 4.9, 6.1, 3.8
"2008/02/12", 5.1, 5.3, 4.9
"2008/02/13", 4.6, 5.3, 4.0
"2008/02/14", 4.2, 5.2, 3.8
"2008/02/15", 3.8, 4.7, 3.0
"2008/02/16", 4.0, 4.8, 3.3
"2008/02/17", 4.0, 4.7, 3.4
"2008/02/18", 4.2, 4.9, 3.5
"2008/02/19", 4.6, 5.7, 3.9
"2008/02/20", 5.2, 6.7, 4.6
"2008/02/21", 5.3, 6.2, 4.5
"2008/02/22", 6.4, 8.0, 5.1
"2008/02/23", 6.4, 7.5, 5.7
"2008/02/24", 5.2, 5.8, 4.9
"2008/02/25", 5.2, 6.0, 4.2
"2008/02/26", 5.5, 5.8, 5.1
"2008/02/27", 5.7, 7.0, 5.0
"2008/02/28", 5.8, 6.9, 5.1
"2008/02/29", 6.3, 7.3, 5.4
"2008/03/01", 6.3, 7.6, 5.6
"2008/03/02", 6.3, 7.4, 5.2
"2008/03/03", 6.7, 9.0, 5.8
"2008/03/04", 7.2, 8.9, 6.5
"2008/03/05", 6.7, 7.5, 6.2
"2008/03/06", 6.8, 7.6, 6.0
"2008/03/07", 6.9, 7.2, 6.6
"2008/03/08", 7.5, 8.6, 6.5
"2008/03/09", 8.0, 8.8, 7.3
"2008/03/10", 8.0, 8.6, 7.8
"2008/03/11", 8.5, 9.6, 7.6
"2008/03/12", 8.3, 8.9, 8.0
"2008/03/13", 8.7, 9.8, 7.8
"2008/03/14", 9.1, 9.7, 8.9
"2008/03/15",10.4,11.7, 9.4
"2008/03/16",10.5,12.4, 9.6
"2008/03/17",10.7,11.7,10.2
"2008/03/18",10.9,11.9,10.0
"2008/03/19",10.9,11.2,10.7
"2008/03/20",10.5,11.0,10.0
"2008/03/21", 9.6,10.0, 9.3
"2008/03/22", 9.5,10.3, 8.8
"2008/03/23"," *"," *"," *"
"2008/03/24",10.3,10.8, 9.9
"2008/03/25",11.3,13.6,10.1
"2008/03/26",11.7,13.5,10.8
"2008/03/27",12.3,13.9,10.9
"2008/03/28",11.9,12.6,11.4
"2008/03/29",12.5,14.2,11.2
"2008/03/30",12.2,12.7,11.7
"2008/03/31",11.1,11.7,10.4
"2008/04/01",10.8,11.9,10.2
"2008/04/02",10.9,12.2,10.1
"2008/04/03",11.7,12.9,10.6
"2008/04/04",12.4,13.9,11.6
"2008/04/05",13.3,14.9,12.0
"2008/04/06",13.5,15.2,12.3
"2008/04/07",13.0,13.4,12.7
"2008/04/08",12.4,12.7,11.9
"2008/04/09",11.9,12.1,11.7
"2008/04/10",11.8,11.9,11.6
"2008/04/11",12.1,13.0,11.4
"2008/04/12",13.0,15.5,11.9
"2008/04/13",12.2,12.7,11.9
"2008/04/14",12.6,14.1,11.5
"2008/04/15",13.4,15.3,12.1
"2008/04/16",13.9,16.2,13.0
"2008/04/17",13.8,14.7,12.9
"2008/04/18",13.4,13.5,13.2
"2008/04/19",13.0,13.2,12.9
"2008/04/20",12.9,13.2,12.7
"2008/04/21",12.8,13.0,12.7
"2008/04/22",13.0,13.9,12.5
"2008/04/23",13.7,15.2,12.2
"2008/04/24",14.4,15.0,13.7
"2008/04/25",14.0,14.6,13.6
"2008/04/26",13.7,14.2,13.4
"2008/04/27",14.6,16.6,13.5
"2008/04/28",14.8,16.0,14.2
"2008/04/29",15.4,16.9,14.1
"2008/04/30",17.0,19.2,14.7
"2008/05/01",17.1,18.1,16.2
"2008/05/02",17.1,17.6,16.6
"2008/05/03",16.7,16.9,16.4
"2008/05/04",17.4,17.7,16.8
"2008/05/05",17.7,18.1,17.4
"2008/05/06",18.9,22.0,17.4
"2008/05/07",19.7,22.3,18.0
"2008/05/08",18.1,19.3,17.7
"2008/05/09",18.2,20.3,17.7
"2008/05/10",17.3,17.8,16.8
"2008/05/11",16.3,16.8,15.8
"2008/05/12",16.2,16.4,15.9
"2008/05/13",15.0,15.9,14.5
"2008/05/14",14.7,14.9,14.5
"2008/05/15",16.1,18.9,14.7
"2008/05/16",16.4,17.8,15.4
"2008/05/17",16.8,17.5,16.3
"2008/05/18",17.5,18.9,16.5
"2008/05/19",18.1,19.3,17.4
"2008/05/20",18.3,19.1,17.8
"2008/05/21",18.4,19.3,17.6
"2008/05/22",18.9,19.7,18.2
"2008/05/23",20.4,24.0,18.8
"2008/05/24",20.4,21.7,19.2
"2008/05/25",20.4,21.2,20.0
"2008/05/26",21.0,22.2,20.3
"2008/05/27",21.7,24.5,20.3
"2008/05/28",21.0,22.2,20.5
"2008/05/29",19.9,20.4,19.3
"2008/05/30",18.8,19.3,18.1
"2008/05/31",17.6,18.1,17.0
"2008/06/01",18.9,21.4,17.4
"2008/06/02",18.9,19.7,18.4
"2008/06/03",18.3,19.2,17.7
"2008/06/04",18.6,20.0,17.7
"2008/06/05",19.0,19.6,18.4
"2008/06/06",19.2,20.2,18.7
"2008/06/07",20.5,22.2,19.1
"2008/06/08",20.8,21.8,20.3
"2008/06/09",20.9,21.8,20.3
"2008/06/10",21.9,23.5,20.4
"2008/06/11",21.9,23.1,21.2
"2008/06/12",20.7,21.7,20.0
"2008/06/13",20.6,22.3,19.6
"2008/06/14",21.1,22.4,20.3
"2008/06/15",21.3,22.2,20.5
"2008/06/16",22.2,23.8,20.9
"2008/06/17",21.9,22.4,21.5
"2008/06/18",22.2,23.6,21.3
"2008/06/19",22.6,23.4,21.8
"2008/06/20",22.7,23.0,22.3
"2008/06/21",22.7,23.4,22.3
"2008/06/22",22.5,22.7,22.0
"2008/06/23",22.1,22.5,21.8
"2008/06/24",22.2,23.0,21.5
"2008/06/25",22.1,22.4,21.9
"2008/06/26",21.3,21.9,20.9
"2008/06/27",21.7,23.1,20.5
"2008/06/28",22.6,24.2,21.6
"2008/06/29",22.1,22.4,21.7
"2008/06/30",21.7,22.2,21.2
"2008/07/01",22.4,24.2,21.5
"2008/07/02",22.8,24.5,21.7
"2008/07/03",23.3,23.7,22.7
"2008/07/04",23.6,24.4,22.9
"2008/07/05",25.3,27.8,23.5
"2008/07/06",25.9,28.3,24.5
"2008/07/07",24.3,26.0,23.7
"2008/07/08",24.7,25.2,24.3
"2008/07/09",24.7,25.4,24.2
"2008/07/10",25.4,27.3,24.1
"2008/07/11",25.0,25.4,24.6
"2008/07/12",26.8,29.1,24.9
"2008/07/13",27.0,28.2,26.3
"2008/07/14",27.3,28.5,26.4
"2008/07/15",27.0,27.7,26.6
"2008/07/16",27.4,28.5,26.5
"2008/07/17",27.7,29.0,26.8
"2008/07/18",27.4,27.6,27.0
"2008/07/19",27.5,28.6,26.6
"2008/07/20",27.4,28.2,26.7
"2008/07/21",27.1,27.6,26.7
"2008/07/22",27.7,28.9,26.6
"2008/07/23",28.1,29.0,27.6
"2008/07/24",28.0,28.9,27.5
"2008/07/25",28.6,29.9,27.5
"2008/07/26",27.6,28.0,27.2
"2008/07/27"," *"," *"," *"
"2008/07/28"," *"," *"," *"
"2008/07/29"," *"," *"," *"
"2008/07/30"," *"," *"," *"
"2008/07/31"," *"," *"," *"
"2008/08/01"," *"," *"," *"
"2008/08/02"," *"," *"," *"
"2008/08/03"," *"," *"," *"
"2008/08/04"," *"," *"," *"
"2008/08/05"," *"," *"," *"
"2008/08/06"," *"," *"," *"
"2008/08/07"," *"," *"," *"
"2008/08/08"," *"," *"," *"
"2008/08/09"," *"," *"," *"
"2008/08/10"," *"," *"," *"
"2008/08/11"," *"," *"," *"
"2008/08/12"," *"," *"," *"
"2008/08/13"," *"," *"," *"
"2008/08/14"," *"," *"," *"
"2008/08/15"," *"," *"," *"
"2008/08/16"," *"," *"," *"
"2008/08/17"," *"," *"," *"
"2008/08/18"," *"," *"," *"
"2008/08/19"," *"," *"," *"
"2008/08/20"," *"," *"," *"
"2008/08/21"," *"," *"," *"
"2008/08/22"," *"," *"," *"
"2008/08/23"," *"," *"," *"
"2008/08/24"," *"," *"," *"
"2008/08/25"," *"," *"," *"
"2008/08/26"," *"," *"," *"
"2008/08/27"," *"," *"," *"
"2008/08/28"," *"," *"," *"
"2008/08/29"," *"," *"," *"
"2008/08/30"," *"," *"," *"
"2008/08/31"," *"," *"," *"
"2008/09/01"," *"," *"," *"
"2008/09/02"," *"," *"," *"
"2008/09/03"," *"," *"," *"
"2008/09/04"," *"," *"," *"
"2008/09/05"," *"," *"," *"
"2008/09/06"," *"," *"," *"
"2008/09/07"," *"," *"," *"
"2008/09/08"," *"," *"," *"
"2008/09/09"," *"," *"," *"
"2008/09/10"," *"," *"," *"
"2008/09/11"," *"," *"," *"
"2008/09/12"," *"," *"," *"
"2008/09/13"," *"," *"," *"
"2008/09/14"," *"," *"," *"
"2008/09/15"," *"," *"," *"
"2008/09/16"," *"," *"," *"
"2008/09/17"," *"," *"," *"
"2008/09/18"," *"," *"," *"
"2008/09/19"," *"," *"," *"
"2008/09/20"," *"," *"," *"
"2008/09/21"," *"," *"," *"
"2008/09/22"," *"," *"," *"
"2008/09/23"," *"," *"," *"
"2008/09/24"," *"," *"," *"
"2008/09/25"," *"," *"," *"
"2008/09/26"," *"," *"," *"
"2008/09/27"," *"," *"," *"
"2008/09/28"," *"," *"," *"
"2008/09/29"," *"," *"," *"
"2008/09/30"," *"," *"," *"
"2008/10/01"," *"," *"," *"
"2008/10/02"," *"," *"," *"
"2008/10/03"," *"," *"," *"
"2008/10/04"," *"," *"," *"
"2008/10/05"," *"," *"," *"
"2008/10/06"," *"," *"," *"
"2008/10/07"," *"," *"," *"
"2008/10/08"," *"," *"," *"
"2008/10/09"," *"," *"," *"
"2008/10/10"," *"," *"," *"
"2008/10/11"," *"," *"," *"
"2008/10/12"," *"," *"," *"
"2008/10/13"," *"," *"," *"
"2008/10/14"," *"," *"," *"
"2008/10/15"," *"," *"," *"
"2008/10/16"," *"," *"," *"
"2008/10/17"," *"," *"," *"
"2008/10/18"," *"," *"," *"
"2008/10/19"," *"," *"," *"
"2008/10/20"," *"," *"," *"
"2008/10/21"," *"," *"," *"
"2008/10/22"," *"," *"," *"
"2008/10/23",19.8,20.1,19.7
"2008/10/24",19.8,20.0,19.5
"2008/10/25",19.8,19.9,19.6
"2008/10/26",19.5,19.7,19.4
"2008/10/27",19.5,20.3,18.7
"2008/10/28",19.5,21.1,18.7
"2008/10/29",18.9,19.5,18.1
"2008/10/30",17.9,18.6,17.2
"2008/10/31",17.4,17.7,16.8
"2008/11/01",17.1,17.5,16.6
"2008/11/02",16.9,18.0,16.3
"2008/11/03",16.7,16.8,16.4
"2008/11/04",16.7,17.6,16.2
"2008/11/05",16.0,16.4,15.5
"2008/11/06"," *"," *"," *"
"2008/11/07",16.1,16.5,15.6
"2008/11/08",15.8,16.1,15.0
"2008/11/09",14.7,15.1,14.1
"2008/11/10",13.8,14.3,13.3
"2008/11/11",13.1,13.6,12.5
"2008/11/12",13.0,13.5,12.3
"2008/11/13",13.4,14.1,12.8
"2008/11/14",14.3,16.2,13.1
"2008/11/15",15.0,15.3,14.8
"2008/11/16",14.9,15.1,14.7
"2008/11/17",14.9,15.3,14.4
"2008/11/18",15.0,15.6,14.4
"2008/11/19",14.0,14.6,13.1
"2008/11/20",12.9,14.1,11.8
"2008/11/21",12.5,12.7,12.0
"2008/11/22",11.7,12.0,11.1
"2008/11/23",11.4,11.8,10.9
"2008/11/24",11.3,11.6,10.8
"2008/11/25",11.2,11.7,10.2
"2008/11/26",11.3,11.9,10.6
"2008/11/27",10.9,11.3,10.4
"2008/11/28",11.0,11.5,10.5
"2008/11/29",11.0,11.5,10.5
"2008/11/30",11.0,11.6,10.4
"2008/12/01",10.9,12.2,10.0
"2008/12/02",10.7,10.9,10.4
"2008/12/03",10.8,11.5,10.1
"2008/12/04",11.6,13.0,10.5
"2008/12/05",11.5,11.9,11.2
"2008/12/06",11.2,11.5,10.5
"2008/12/07",10.3,11.1, 9.1
"2008/12/08",10.1,10.5, 9.3
"2008/12/09",10.2,10.8, 9.4
"2008/12/10",11.1,12.3,10.4
"2008/12/11",10.9,11.5,10.5
"2008/12/12",11.0,12.1,10.1
"2008/12/13",10.8,11.1,10.6
"2008/12/14", 9.8,10.7, 8.8
"2008/12/15", 9.2, 9.9, 8.5
"2008/12/16", 9.3, 9.8, 8.1
"2008/12/17", 9.4, 9.8, 8.9
"2008/12/18", 9.9,10.6, 9.3
"2008/12/19",10.0,11.5, 9.5
"2008/12/20", 9.5, 9.9, 9.3
"2008/12/21", 9.6,10.5, 8.8
"2008/12/22",10.1,10.8, 8.8
"2008/12/23", 9.2,10.0, 8.1
"2008/12/24", 8.9, 9.3, 8.3
"2008/12/25", 8.9, 9.4, 8.5
"2008/12/26", 7.9, 8.7, 7.1
"2008/12/27", 7.2, 7.9, 6.3
"2008/12/28", 6.6, 7.1, 6.2
"2008/12/29", 6.6, 7.2, 6.1
"2008/12/30", 7.1, 8.3, 6.2
"2008/12/31", 6.5, 7.2, 6.0
